Current weather by "City, St" or "zip code"  
 

Current Conditions: Rochester, Greater Rochester International Airport, NY

Mostly Cloudy


64.0 F

Last Updated on Oct 21 2021, 12:54 pm EDT
Humidity: 65%
Wind Speed: SW 11.5 mph
Barometer 29.84 in
Dewpoint: 52.0 F
Visibility: 10.00 mi
Precip: --
Heat Index: NA
Wind Chill: NA
Current conditions at:

Rochester, Greater Rochester International Airport, NY (KROC)

Lat: 43.11667 Lon: 77.67667

Local Radar Image active severe weather and emergency alerts image image weather storm and storm spotter reports image weather observation monitoring service image
Local
Radar
Active
Alerts
Storm Reports Obs
Monitoring

Sign-up For Email & Text Message Weather Alert Notification Services



Advertise Here

Observation History for Rochester, Greater Rochester International Airport, NY


Time Wind
(mph)
Vis
(mi)
Weather Precip (in) Temperature (F) Relative
Humidity
Wind
Chill
(F)
Heat
Index
(F)
Pressure
Air Dwpt altimeter
(in)
sea level
(mb)
Rmks
12:54 pm EDT SW 11.5 10.00 Mostly Cloudy -- 64.0 52.0 65% NA NA 29.84 1010.7
11:54 am EDT S 11.5 10.00 Mostly Cloudy -- 63.0 52.0 68% 62 NA 29.85 1011.2
10:54 am EDT S 12.7 10.00 Overcast Trace 61.0 52.0 72% 59 NA 29.89 1012.6
9:54 am EDT SW 9.2 10.00 Light Rain Trace 60.0 52.0 75% 59 NA 29.91 1013.3
8:54 am EDT SW 6.9 10.00 Mostly Cloudy -- 58.0 52.0 81% 57 NA 29.92 1013.5
7:54 am EDT SW 5.8 10.00 Mostly Cloudy 00.02 54.0 52.0 93% 53 NA 29.91 1013.3
6:54 am EDT SW 5.8 10.00 Light Rain 00.01 56.0 51.1 84% 55 NA 29.91 1013.2
5:54 am EDT SW 6.9 10.00 Overcast Trace 57.0 48.9 74% 56 NA 29.93 1013.9
4:54 am EDT SW 6.9 10.00 Overcast Trace 57.0 48.0 72% 56 NA 29.94 1014.1
3:54 am EDT SW 6.9 10.00 Overcast Trace 55.0 48.9 80% 53 NA 29.95 1014.5
2:54 am EDT SW 6.9 10.00 Light Rain Trace 56.0 48.9 77% 54 NA 29.97 1015.0
1:54 am EDT SW 9.2 10.00 Overcast -- 55.0 50.0 83% 52 NA 29.97 1015.3
12:54 am EDT SW 8.1 10.00 Overcast -- 55.0 51.1 87% 53 NA 29.98 1015.5
11:54 pm EDT SW 6.9 10.00 Mostly Cloudy -- 54.0 50.0 87% 52 NA 30.00 1016.0
10:54 pm EDT SW 5.8 10.00 A Few Clouds -- 54.0 50.0 87% 53 NA 30.01 1016.3
9:54 pm EDT SW 8.1 10.00 Fair -- 55.0 48.9 80% 53 NA 30.00 1016.2
8:54 pm EDT SW 6.9 10.00 A Few Clouds -- 56.0 48.9 77% 54 NA 30.00 1016.3
7:54 pm EDT SW 5.8 10.00 Mostly Cloudy -- 58.0 48.0 70% 57 NA 30.02 1016.8
6:54 pm EDT W 8.1 10.00 Mostly Cloudy -- 61.0 48.0 63% 60 NA 30.01 1016.3
5:54 pm EDT W 9.2 10.00 Mostly Cloudy -- 64.0 48.0 56% NA NA 30.01 1016.3
4:54 pm EDT W 11.5 10.00 Mostly Cloudy -- 66.0 51.1 59% NA NA 30.01 1016.4
3:54 pm EDT W 15.0 10.00 Overcast Trace 65.0 52.0 63% NA NA 30.01 1016.4
2:54 pm EDT W 15.0 10.00 Light Rain Trace 64.0 51.1 63% NA NA 30.01 1016.6
1:54 pm EDT W 17.3 G 27.6 10.00 Mostly Cloudy -- 68.0 51.1 55% NA NA 30.03 1016.9

Regional Weather Observation


Genesee County Airport, NY (KGVQ)

Fair
65.0 F

Williamson-Sodus Airport, NY (KSDC)

Fair
64.0 F

Niagara Falls, Niagara Falls International Airport, NY (KIAG)

Fair
63.0 F

Buffalo, Greater Buffalo International Airport, NY (KBUF)

Mostly Cloudy
66.0 F

Dansville, Dansville Municipal Airport, NY (KDSV)

Fair
69.0 F

Penn Yan, Penn Yan Airport, NY (KPEO)

Fair
63.0 F

Advertise Here


Advertise Here